[[{"header":{"parameterUnit":"m.s-1","parameterCategory":1,"la1":30.2992,"la2":30.254,"lo1":-89.0895,"lo2":-89.0443,"dy":0.0025,"dx":0.0025,"nx":19,"ny":19,"refTime":"2026-04-08T09:00:00:Z","depth":0,"parameterNumber":2,"parameterNumberName":"U-component_of_WINDS"},"data":[0,0,0,-3.5273,-3.5275,-3.531,-3.531,-3.5396,-3.5397,0,0,0,0,0,0,0,0,0,0,0,-3.5287,-3.5288,-3.5273,-3.5275,-3.531,-3.531,-3.5395,-3.5397,0,0,0,0,0,0,0,0,0,0,0,-3.5286,-3.5288,-3.529,-3.5275,-3.531,-3.531,-3.5395,-3.5354,0,0,0,0,0,0,0,0,0,0,-3.5313,-3.5349,-3.5287,-3.529,-3.5275,-3.531,-3.531,-3.5352,-3.5357,-3.5397,0,-3.5438,0,-3.5419,-3.5405,-3.5405,0,0,0,-3.5257,-3.5345,-3.5332,-3.529,-3.5276,-3.531,-3.5289,-3.5354,-3.536,-3.5404,-3.5439,-3.5441,-3.542,-3.5406,-3.5406,-3.5693,-3.5695,0,0,-3.5255,-3.5307,-3.5329,-3.5337,-3.5334,-3.5288,-3.529,-3.5357,-3.5399,-3.5439,-3.5442,-3.5422,-3.5407,-3.5408,-3.5691,-3.5693,0,0,0,-3.5261,-3.5306,-3.5291,-3.5335,-3.5338,-3.529,-3.5292,-3.5396,-3.5387,-3.5443,-3.5423,-3.5407,-3.5409,-3.5688,-3.5692,-3.5848,0,0,0,-3.5259,-3.5309,-3.5291,-3.5323,-3.5338,-3.5368,-3.5331,-3.5382,-3.5388,-3.5422,-3.5407,-3.541,-3.5686,-3.569,-3.5838,-3.5914,0,0,0,-3.5276,-3.5311,-3.5324,-3.5326,-3.5342,-3.5365,-3.5359,-3.5382,-3.5377,-3.5405,-3.541,-3.5684,-3.5689,-3.583,-3.59,-3.6004,0,0,0,-3.531,-3.5464,-3.5328,-3.5492,-3.5343,-3.5461,-3.5358,-3.5444,-3.5488,-3.5408,-3.5686,-3.5691,-3.5827,-3.5891,-3.5995,-3.6101,-3.615,0,0,-3.5533,-3.5493,-3.5585,-3.5464,-3.562,-3.5452,-3.563,-3.5622,-3.5579,-3.5657,-3.5664,-3.5841,-3.5899,-3.6002,-3.6404,-3.6444,0,0,0,-3.5674,-3.5741,-3.5771,-3.5814,-3.581,-3.5813,-3.5771,-3.5768,-3.5832,-3.5629,-3.5905,-3.5938,-3.5996,-3.6045,-3.6078,-3.6125,-3.5716,-3.5715,-3.5715,-3.6066,-3.5999,-3.6147,-3.6086,-3.6129,-3.6083,-3.6112,-3.6099,-3.6022,-3.6088,-3.6112,-3.6364,-3.6422,-3.6447,-3.6497,-3.6162,-3.6162,-3.6163,-3.6163,-3.6387,-3.6472,-3.6362,-3.6467,-3.6396,-3.6484,-3.6446,-3.6388,-3.6459,-3.6341,-3.6389,-3.6267,-3.6492,-3.6532,-3.6174,-3.6173,-3.6171,-3.617,-3.6169,-3.6637,-3.6665,-3.6657,-3.671,-3.6759,-3.6691,-3.6764,-3.6697,-3.6636,-3.6683,-3.67,-3.6698,-3.6687,-3.6696,-3.6697,-3.6698,-3.6698,-3.6699,-3.6699,-3.6899,-3.6884,-3.6953,-3.6961,-3.6978,-3.6993,-3.6948,-3.6964,-3.6964,-3.691,-3.691,-3.6826,-3.6526,-3.6452,-3.6713,-3.671,-3.6709,-3.6707,-3.6707,-3.7251,-3.716,-3.7267,-3.7285,-3.7286,-3.7339,-3.7252,-3.729,-3.7293,-3.7332,-3.7236,-3.7025,-3.6979,-3.6952,-3.6891,-3.725,-3.725,-3.725,-3.725,-3.7463,-3.7432,-3.7525,-3.7557,-3.7581,-3.7512,-3.7635,-3.7601,-3.7552,-3.755,-3.7488,-3.7401,-3.7376,-3.7345,-3.731,-3.7251,-3.7694,-3.7694,-3.7694,-3.7675,-3.7643,-3.7761,-3.7709,-3.7705,-3.7703,-3.7817,-3.7859,-3.7784,-3.7711,-3.7547,-3.7529,-3.7386,-3.7343,-3.7268,-3.7214,-3.7106,0,0]},{"header":{"parameterUnit":"m.s-1","parameterCategory":1,"la1":30.2992,"la2":30.254,"lo1":-89.0895,"lo2":-89.0443,"dy":0.0025,"dx":0.0025,"nx":19,"ny":19,"refTime":"2026-04-08T09:00:00:Z","depth":0,"parameterNumber":3,"parameterNumberName":"V-component_of_WINDS"},"data":[0,0,0,0.7866,0.7865,0.7842,0.7842,0.7813,0.7812,0,0,0,0,0,0,0,0,0,0,0,0.7875,0.7875,0.7866,0.7865,0.7842,0.7842,0.7813,0.7812,0,0,0,0,0,0,0,0,0,0,0,0.7875,0.7875,0.7875,0.7865,0.7842,0.7842,0.7813,0.783,0,0,0,0,0,0,0,0,0,0,0.7852,0.7863,0.7875,0.7875,0.7865,0.7842,0.7842,0.783,0.7829,0.7824,0,0.7822,0,0.7817,0.7811,0.7811,0,0,0,0.7863,0.7865,0.7857,0.7875,0.7865,0.7842,0.7852,0.7829,0.7827,0.7822,0.7822,0.7821,0.7817,0.781,0.781,0.7796,0.7796,0,0,0.7864,0.7872,0.7858,0.7856,0.7861,0.7853,0.7851,0.7828,0.7828,0.7822,0.782,0.7816,0.781,0.781,0.7796,0.7796,0,0,0,0.787,0.7873,0.7865,0.7857,0.7853,0.7852,0.785,0.7829,0.7826,0.782,0.7816,0.781,0.781,0.7796,0.7796,0.7806,0,0,0,0.787,0.7876,0.7866,0.787,0.7853,0.7841,0.7852,0.7828,0.7825,0.7816,0.781,0.781,0.7796,0.7796,0.7805,0.7808,0,0,0,0.7876,0.7876,0.7874,0.787,0.786,0.7841,0.7837,0.7827,0.7823,0.7811,0.7809,0.7796,0.7796,0.7805,0.7808,0.7807,0,0,0,0.7883,0.7881,0.7874,0.7871,0.7861,0.7848,0.7837,0.7826,0.7817,0.781,0.7796,0.7796,0.7805,0.7808,0.7807,0.7808,0.7809,0,0,0.7885,0.7882,0.7879,0.7872,0.7863,0.7851,0.7842,0.7826,0.7817,0.7803,0.7803,0.7805,0.7808,0.7807,0.7813,0.7814,0,0,0,0.7882,0.788,0.7876,0.7869,0.7858,0.7848,0.7833,0.7827,0.7815,0.7812,0.7805,0.7806,0.7805,0.7805,0.7806,0.7804,0.7797,0.7797,0.7797,0.7894,0.7885,0.788,0.7868,0.7861,0.7846,0.7838,0.7828,0.7819,0.7817,0.7813,0.7818,0.7818,0.7819,0.7818,0.7813,0.7813,0.7813,0.7813,0.7896,0.7892,0.7882,0.7874,0.7863,0.7855,0.7841,0.7835,0.7825,0.782,0.7819,0.7814,0.7821,0.7819,0.7814,0.7814,0.7813,0.7813,0.7813,0.7902,0.7899,0.7893,0.7882,0.7874,0.7861,0.7853,0.7843,0.7833,0.7832,0.7827,0.7826,0.7825,0.783,0.783,0.783,0.783,0.783,0.783,0.7912,0.7905,0.79,0.7889,0.7883,0.7874,0.7859,0.7852,0.7842,0.7836,0.7835,0.7827,0.7823,0.7823,0.7831,0.7831,0.7831,0.7831,0.7831,0.7916,0.7914,0.7907,0.7901,0.7887,0.7879,0.7868,0.7855,0.7848,0.7844,0.7836,0.7835,0.7831,0.783,0.7829,0.7838,0.7838,0.7838,0.7838,0.7922,0.7919,0.791,0.7901,0.7892,0.7881,0.7871,0.7859,0.7846,0.7841,0.7839,0.7837,0.7837,0.7832,0.7831,0.783,0.784,0.784,0.784,0.7924,0.792,0.7915,0.7904,0.7892,0.7882,0.7873,0.7862,0.7847,0.784,0.7837,0.7837,0.7834,0.7834,0.7826,0.7825,0.7823,0,0]}]]